Theta_e
318 317 316 316 315 315 314 315 316 321 324 325 324 324 324 324 324 325 326 325 322 320 321 324 326 323 323 323 324 324 324 326 327 326 326 325 324 325 324 326 328 332 331 344 345
317 316 315 315 315 316 316 317 319 324 325 324 323 323 323 323 323 327 324 324 323 321 322 325 326 326 324 324 325 325 326 327 327 326 326 325 324 324 325 326 326 329 330 340 342
316 316 315 315 315 317 318 320 323 325 324 324 324 324 323 323 327 325 324 323 322 321 322 325 324 325 325 325 326 326 326 326 326 325 325 325 325 325 325 326 326 326 329 338 341
316 315 314 315 316 319 321 323 324 324 324 324 324 323 323 325 331 325 324 325 321 321 323 325 325 325 326 327 326 326 326 326 326 326 325 325 325 326 325 325 325 325 325 335 339
315 314 314 314 316 320 322 323 324 324 324 324 324 324 324 327 327 323 323 323 322 322 323 325 325 326 327 327 327 327 327 326 326 326 325 325 325 326 326 326 325 325 325 325 326
314 314 314 314 316 320 323 324 324 324 323 324 324 323 323 327 325 324 322 322 322 323 324 324 325 325 324 326 327 327 327 327 327 326 326 326 326 326 326 325 325 326 326 326 326
314 314 314 314 315 319 323 324 324 323 324 324 323 323 324 327 325 323 323 322 321 321 324 324 323 324 325 327 327 327 327 326 326 326 326 326 326 325 325 326 326 325 326 327 327
313 313 313 314 314 318 322 324 324 324 324 324 324 323 328 325 321 323 323 322 321 321 322 322 322 323 324 325 325 326 326 328 328 327 326 324 325 326 325 325 325 325 325 325 325
313 313 313 313 314 316 322 324 324 325 326 325 325 327 329 324 323 322 322 323 322 322 322 322 323 324 325 327 327 328 328 329 327 326 326 325 325 326 326 325 325 325 325 324 325
313 312 312 312 313 316 322 325 325 327 326 326 325 325 328 327 326 323 322 322 322 323 323 323 324 326 327 327 328 328 327 326 325 325 326 325 325 325 325 324 325 325 324 324 325
312 312 311 312 312 316 323 326 329 327 327 326 325 326 326 326 323 321 321 323 323 322 324 324 326 327 327 325 324 323 322 323 323 324 324 324 324 325 325 324 324 324 324 324 322
313 313 312 311 312 317 324 330 326 324 324 325 326 326 323 319 317 318 317 318 320 322 322 323 326 325 323 321 322 322 323 324 325 325 325 324 324 324 325 325 324 324 324 321 321
316 314 313 312 314 319 326 329 324 324 325 326 326 324 318 317 319 319 317 319 321 323 324 325 325 321 321 321 321 322 323 325 323 324 323 323 325 326 325 323 322 322 322 322 322
318 316 315 314 315 323 329 326 325 324 329 328 323 318 317 318 320 318 318 319 319 322 321 321 322 321 321 322 323 324 324 323 321 322 323 322 323 324 324 324 321 322 322 322 322
319 319 316 315 325 328 325 324 325 326 333 327 321 318 318 319 319 318 317 318 321 321 320 324 323 322 322 323 323 322 320 320 320 320 322 321 323 324 325 324 322 323 322 323 322
318 320 319 318 320 326 324 324 326 332 333 328 323 320 320 319 319 319 318 318 319 320 322 322 322 322 321 321 321 320 319 320 322 323 325 324 324 325 323 322 323 323 323 322 322
321 319 321 320 322 323 323 324 330 332 326 328 327 322 321 322 320 319 320 321 323 325 326 326 326 325 321 321 322 321 322 324 326 330 329 326 325 325 323 322 323 323 323 322 322
323 321 320 322 323 324 323 323 328 328 327 325 323 325 324 324 323 322 322 324 325 325 326 326 327 326 324 322 321 321 322 325 326 326 326 323 324 324 322 320 320 322 321 320 319
324 324 322 321 323 324 323 327 327 326 325 326 326 324 324 324 323 325 325 327 327 326 328 327 326 324 322 321 320 321 322 322 324 323 324 322 323 323 321 320 320 319 320 319 317
325 324 323 323 321 323 322 325 326 324 323 325 328 326 328 326 328 328 325 325 325 324 325 325 327 324 324 320 319 319 319 320 322 323 324 323 323 324 321 321 320 320 319 318 317
321 318 320 322 322 321 325 323 324 323 323 324 326 327 327 327 327 329 328 326 325 323 322 320 322 322 321 323 323 321 320 319 319 320 323 323 322 321 319 318 319 320 319 317 314
317 318 320 322 320 320 325 324 322 323 323 324 323 324 326 326 327 327 328 327 321 320 320 318 319 322 323 322 322 322 322 321 322 321 321 321 323 320 320 319 317 316 314 313 312
316 318 319 320 323 321 322 322 323 323 322 323 324 323 324 325 326 326 326 323 318 321 320 318 319 323 323 322 321 320 321 319 318 318 319 321 322 318 316 315 314 314 314 312 309
314 310 314 316 318 324 322 322 323 321 323 321 322 318 322 323 324 323 322 319 316 318 316 314 319 321 325 324 322 323 322 321 321 320 318 319 318 318 318 318 316 313 312 310 309
311 310 311 312 315 316 322 322 323 321 321 318 318 319 320 321 319 318 320 315 313 311 315 314 316 319 320 319 320 320 320 319 320 319 319 318 317 317 316 316 314 312 311 309 309
307 310 310 314 316 317 317 323 323 322 318 318 319 317 318 322 320 319 318 316 316 313 312 312 315 316 318 318 318 319 318 318 318 318 317 318 317 316 315 313 312 312 309 309 308
303 309 311 313 315 316 318 320 322 321 319 320 318 319 317 318 320 318 315 315 314 314 312 313 313 316 318 317 317 319 318 318 317 317 316 316 316 315 314 314 312 309 309 308 309
Wind_Speed
8 8 9 10 11 13 14 14 17 19 20 22 25 25 24 22 15 5 5 6 8 10 6 4 7 9 11 12 16 11 9 13 12 6 3 11 3 8 5 10 5 1 7 16 19
9 9 10 10 11 12 14 14 16 18 22 23 24 24 24 23 17 5 11 10 14 9 4 12 12 9 11 15 16 8 11 15 10 10 6 2 7 10 4 9 14 14 13 12 13
9 10 10 11 11 12 14 14 16 18 21 22 26 25 23 21 12 2 7 8 14 6 9 13 11 11 15 17 15 14 12 17 8 5 9 12 11 8 12 8 11 5 7 17 14
11 12 11 12 11 11 13 14 16 19 20 23 29 24 23 10 5 1 7 14 9 7 8 10 11 12 15 15 15 16 14 17 15 12 4 9 13 14 14 15 15 9 5 13 15
13 12 12 13 13 11 13 14 15 20 21 22 30 25 28 7 8 9 9 11 5 6 9 9 10 13 14 15 13 9 14 19 16 10 13 14 15 15 16 16 5 8 10 11 13
16 14 14 14 14 13 13 15 16 19 24 25 24 26 14 12 7 7 6 5 5 7 8 7 9 11 11 15 14 18 18 17 18 17 17 15 17 15 20 6 3 5 9 12 16
17 16 15 15 16 15 14 15 18 21 24 27 21 23 8 10 9 9 7 3 3 3 4 3 6 8 14 13 9 14 15 16 20 23 18 11 13 17 19 9 6 13 9 3 9
18 18 17 16 17 17 17 17 18 22 23 17 23 11 7 7 4 4 2 3 2 2 3 4 8 12 13 13 17 16 17 16 2 12 7 3 14 16 11 7 9 10 9 8 9
19 18 18 17 18 18 19 19 19 22 21 14 15 8 5 7 2 4 2 3 4 6 6 7 8 11 13 11 12 14 12 9 3 9 7 11 10 8 5 9 15 17 13 14 9
20 19 18 18 18 18 19 21 18 17 11 14 9 9 7 2 15 10 10 8 8 7 9 9 8 9 8 8 8 14 13 15 14 2 6 8 11 13 20 20 19 12 7 14 5
21 19 18 17 17 16 18 18 8 7 4 16 29 27 25 22 16 16 17 17 14 10 10 9 6 8 8 10 11 11 11 12 13 12 11 10 14 14 18 18 19 16 15 20 12
21 19 17 16 15 13 10 6 6 7 15 22 30 24 13 7 7 6 2 7 9 12 12 8 9 6 4 4 6 9 11 13 13 13 9 15 19 18 21 19 22 19 13 17 12
21 18 17 15 13 14 7 8 5 10 9 17 8 3 4 4 4 4 6 6 7 7 7 9 2 1 3 5 8 9 12 13 16 15 17 19 21 19 9 4 8 9 15 13 9
22 19 17 12 10 6 8 4 4 11 5 11 5 5 4 3 4 4 6 0 2 1 1 7 6 2 5 10 12 13 12 15 15 14 13 16 13 17 18 12 13 14 15 14 10
24 22 20 15 9 4 5 3 5 5 6 2 6 5 4 5 1 7 7 4 3 5 3 1 5 6 10 11 10 14 13 14 16 17 17 18 12 15 16 16 17 14 16 13 13
26 24 21 22 21 5 8 5 5 4 7 5 6 6 7 11 8 6 7 7 6 6 9 14 16 9 11 9 11 12 12 15 19 16 13 20 15 12 8 8 12 19 18 15 13
29 28 28 23 17 18 13 2 3 6 2 6 9 7 10 8 10 11 10 9 7 7 12 14 14 14 17 11 10 11 12 7 6 4 11 13 13 9 10 7 15 14 17 14 12
32 30 31 29 20 21 18 2 12 7 16 6 6 5 12 12 11 13 12 12 14 13 12 13 15 12 6 9 6 10 11 7 11 11 18 17 10 10 5 13 16 17 18 13 9
34 34 36 36 35 28 18 10 9 8 10 11 14 12 14 14 6 6 12 16 16 15 16 9 15 3 4 8 10 6 9 12 15 15 14 7 14 11 13 10 6 8 11 7 8
37 41 43 43 40 31 8 23 10 14 8 13 15 14 14 16 15 8 11 5 5 9 9 15 18 13 12 5 8 13 12 11 7 6 9 9 13 12 6 8 10 5 7 6 6
33 15 20 39 46 27 18 13 15 19 20 10 11 9 16 18 18 16 7 12 10 12 5 11 10 13 14 15 17 12 14 14 12 11 10 14 2 4 6 5 5 5 6 3 7
18 4 17 31 16 9 21 26 20 15 31 20 6 12 13 13 19 21 18 15 7 7 4 8 2 8 17 19 20 20 19 17 11 13 13 15 22 6 7 2 8 1 4 11 17
8 12 35 45 12 16 15 26 26 23 10 16 17 18 17 19 9 11 15 6 2 5 4 5 4 6 8 11 17 15 18 12 12 14 23 12 17 7 5 4 4 7 14 18 18
6 4 9 23 14 18 19 15 25 25 25 19 6 5 8 10 13 6 5 1 2 8 15 8 5 13 11 11 5 13 17 18 18 15 17 21 24 17 13 10 9 17 21 18 20
11 4 8 7 13 4 15 11 18 13 21 25 5 16 16 9 7 8 7 2 2 9 10 8 7 17 23 23 21 23 25 22 20 20 17 27 22 16 13 10 14 25 27 22 17
8 7 6 2 17 16 9 21 21 18 13 9 16 17 19 23 18 13 12 7 5 8 8 7 4 12 23 21 22 25 27 26 26 25 25 24 31 15 23 19 21 27 18 16 19
29 14 10 10 8 11 22 19 19 18 18 28 24 18 20 24 26 14 17 14 7 10 12 7 5 4 12 14 16 18 24 28 28 22 17 22 24 16 18 17 22 12 15 19 17
Wind_Direction
301 314 321 329 337 341 345 352 344 342 345 345 342 341 341 334 335 304 256 230 322 308 298 327 272 250 239 254 256 270 270 260 270 165 239 112 246 203 250 290 251 62 24 126 153
293 302 312 319 330 336 340 347 341 341 341 344 342 341 338 333 325 284 232 253 295 288 274 322 291 249 251 244 240 226 252 279 28 1 340 245 220 271 269 253 230 220 206 152 151
277 288 300 308 321 329 335 343 341 341 344 345 344 341 343 334 324 185 220 263 303 276 301 300 290 288 274 256 237 239 250 285 335 358 321 315 305 288 269 253 283 300 167 164 162
272 282 293 301 311 322 327 339 337 337 342 342 342 342 348 342 339 31 263 293 308 298 335 299 282 268 263 266 232 252 267 273 285 296 282 273 293 298 292 291 304 317 355 170 187
271 277 286 293 302 312 321 328 333 331 338 339 339 331 340 300 306 329 309 320 334 320 296 306 300 284 280 288 276 247 262 275 270 266 266 260 259 272 274 269 325 324 303 273 258
267 272 279 286 296 304 313 319 327 328 332 333 334 327 329 283 302 310 320 316 302 286 285 285 316 331 305 283 300 289 304 295 289 272 261 263 272 272 267 213 249 278 276 266 243
264 270 274 281 289 297 305 312 321 325 330 331 332 328 296 268 306 308 281 289 283 286 281 9 320 306 310 301 311 308 294 277 261 245 238 250 275 253 245 159 224 262 215 241 290
262 268 274 280 284 292 299 307 317 322 325 326 333 332 279 288 326 358 294 253 221 276 251 309 314 294 274 283 294 281 260 269 331 193 133 118 279 289 124 174 260 282 285 210 219
259 265 271 277 282 290 298 305 316 320 316 321 327 329 292 319 16 317 307 269 253 263 255 287 307 286 283 263 285 239 255 225 340 136 150 182 265 295 266 218 236 251 244 268 185
251 258 267 273 281 292 301 310 318 310 311 326 307 286 232 277 308 276 264 267 269 281 282 269 252 241 250 249 276 348 327 331 321 91 202 239 257 267 283 281 272 266 245 264 192
251 257 263 269 280 296 313 344 341 303 285 294 280 281 285 290 292 283 263 251 250 252 255 263 260 246 277 342 338 314 296 291 290 296 306 303 278 271 274 264 265 252 230 223 144
248 252 259 266 277 289 318 338 345 314 297 288 277 270 280 279 278 233 198 207 198 229 215 235 239 264 319 325 307 291 290 289 287 288 305 290 289 283 269 253 239 239 228 133 139
243 244 250 259 273 279 289 283 304 326 273 299 276 208 250 205 271 153 192 209 216 216 192 205 31 124 314 311 296 277 270 298 319 315 296 283 275 270 263 132 98 103 105 114 134
236 235 238 244 280 280 264 197 315 337 286 275 162 150 178 219 236 224 233 226 198 220 154 256 243 253 289 277 281 290 311 325 305 301 289 316 293 291 278 223 155 143 134 139 133
231 229 229 220 207 225 194 214 345 347 296 14 125 156 183 221 2 183 201 219 265 174 214 136 211 250 263 275 297 289 314 298 293 285 287 276 271 281 273 250 160 148 150 143 132
227 223 222 216 215 170 197 237 332 236 241 254 144 200 194 208 232 140 202 230 293 287 259 266 274 260 252 282 289 293 287 287 272 257 254 261 250 274 334 350 170 147 151 152 157
226 220 220 217 221 212 215 191 231 224 133 235 219 196 215 183 210 195 197 214 240 286 292 296 266 252 213 241 270 244 257 284 282 292 275 315 311 302 296 184 136 136 150 163 156
226 222 218 214 205 208 201 155 228 214 202 295 330 244 234 231 218 215 227 243 249 247 269 285 293 293 123 207 258 294 289 286 285 295 290 303 279 279 96 89 116 151 160 161 155
225 221 221 211 206 200 180 219 217 189 209 224 262 261 243 242 229 260 271 269 267 277 262 271 275 194 306 263 213 268 255 289 284 284 287 254 254 277 99 105 112 140 137 177 180
217 213 220 214 206 192 214 229 217 207 192 213 229 209 220 240 254 247 260 295 288 290 281 270 277 265 281 9 260 263 285 290 266 271 268 268 290 305 169 157 168 175 160 190 226
223 202 220 210 198 190 222 212 212 221 211 205 225 247 227 246 255 259 256 259 304 309 280 300 267 263 286 264 263 250 244 228 258 270 281 290 260 122 96 60 45 138 173 217 287
203 212 192 186 190 211 225 213 221 219 225 229 226 228 224 227 255 261 254 255 79 18 360 37 348 273 256 274 277 263 254 256 254 253 243 255 261 230 54 269 155 106 306 296 316
212 183 180 184 193 212 223 224 226 224 220 221 224 213 217 236 248 245 250 272 27 182 184 119 220 283 280 231 232 244 254 253 257 276 264 261 267 97 102 125 180 260 320 316 312
221 153 173 212 238 219 206 211 214 216 228 219 220 167 224 222 222 216 227 220 331 147 159 138 239 235 254 273 333 287 276 273 263 248 265 251 273 274 290 296 295 335 315 309 312
225 238 182 198 221 200 193 199 209 200 210 195 233 207 194 212 219 232 210 147 26 127 175 160 233 240 256 270 279 280 272 262 256 261 262 274 263 282 285 296 311 308 293 296 302
212 176 204 275 217 205 209 214 207 198 168 197 212 195 203 220 205 210 198 181 187 182 176 182 244 243 262 264 267 271 264 263 259 260 259 263 273 289 287 297 288 268 289 312 317
220 224 193 199 196 193 217 224 213 201 207 212 203 215 212 225 232 247 188 185 181 179 176 185 205 201 262 257 269 264 252 248 254 250 257 257 266 270 269 266 267 321 327 321 333